User: anonymous   Login
Location: Unspecified
(0.0000°N, 0.0000°E)
Time: 02:40:18
(UTC+00:00)
Language:

COSMOS 2251 DEB - Orbit

View from above orbital plane
View from above orbital plane
View from above satellite
View from above satellite

Ground track
Ground track

The orbit data is extracted from the following two-line orbital elements,

1 40221U 93036BVA 21053.73676885  .00003429  00000-0  46069-3 0  9997
2 40221  73.9059 323.8082 0179532  85.5914 305.5223 14.69069342342901
Epoch (UTC): 22 February 2021 17:40:56
Eccentricity: 0.0179532
inclination: 73.9059°
perigee height: 537 km
apogee height: 790 km
right ascension of ascending node: 323.8082°
argument of perigee: 85.5914°
revolutions per day: 14.69069342
mean anomaly at epoch: 305.5223°
orbit number at epoch: 34290

The dashed part of the orbit path shows where the satellite is in the earth's shadow,  

DLR